N677P KTEB-KBCT

Flight info

Callsign N677P
Flight time N/A
Altitude 33000
Route ELVAE COL/N0310F320 WHITE Q409 CRPLR EARZZ/N0311F340 Q131 WAALT Y289 DULEE CLMNT2
Aircraft P180/L-SBDFGM3RWXY/LB1

Departure

Time 2026-05-07 20:18
Airport Teterboro Airport (KTEB)

Arrival

Time N/A
Airport Boca Raton Airport (KBCT)
Time Latitude Longitude Altitude Speed Heading
2026-05-07 20:08 40.84657 -74.06594 9 ft 0 kts 49°
2026-05-07 20:13 40.84659 -74.06592 9 ft 1 kts 49°
2026-05-07 20:13 40.84664 -74.06585 9 ft 2 kts 44°
2026-05-07 20:13 40.84686 -74.06584 9 ft 5 kts 333°
2026-05-07 20:14 40.84719 -74.06617 9 ft 7 kts 319°
2026-05-07 20:14 40.84752 -74.06677 8 ft 10 kts 271°
2026-05-07 20:14 40.84710 -74.06763 8 ft 13 kts 227°
2026-05-07 20:14 40.84647 -74.06857 7 ft 16 kts 228°
2026-05-07 20:15 40.84613 -74.06942 6 ft 9 kts 296°
2026-05-07 20:15 40.84620 -74.06953 6 ft 0 kts 316°
2026-05-07 20:15 40.84625 -74.06958 6 ft 2 kts 316°
2026-05-07 20:16 40.84642 -74.06978 6 ft 5 kts 321°
2026-05-07 20:16 40.84672 -74.07010 6 ft 6 kts 330°
2026-05-07 20:16 40.84694 -74.07002 7 ft 0 kts 47°
2026-05-07 20:17 40.84715 -74.06972 8 ft 23 kts 47°
2026-05-07 20:17 40.84995 -74.06555 12 ft 93 kts 48°
2026-05-07 20:17 40.85529 -74.05773 10 ft 131 kts 47°
2026-05-07 20:17 40.86146 -74.04841 355 ft 137 kts 46°
2026-05-07 20:18 40.86767 -74.03856 827 ft 141 kts 53°
2026-05-07 20:18 40.87347 -74.02703 970 ft 165 kts 68°
2026-05-07 20:18 40.87177 -74.01206 1302 ft 171 kts 128°
2026-05-07 20:18 40.86171 -74.00721 2061 ft 155 kts 188°
2026-05-07 20:19 40.85140 -74.01183 2659 ft 157 kts 219°
2026-05-07 20:19 40.84448 -74.02318 3214 ft 168 kts 240°
2026-05-07 20:19 40.83756 -74.03705 3517 ft 193 kts 239°
2026-05-07 20:19 40.82975 -74.05250 3815 ft 207 kts 239°
2026-05-07 20:20 40.82292 -74.06555 4285 ft 208 kts 236°
2026-05-07 20:21 40.82276 -74.06583 4297 ft 208 kts 236°
2026-05-07 20:21 40.81279 -74.08025 4821 ft 212 kts 224°
2026-05-07 20:21 40.80032 -74.09102 5338 ft 217 kts 212°
2026-05-07 20:22 40.78690 -74.10016 5836 ft 218 kts 211°
2026-05-07 20:22 40.77349 -74.10969 6305 ft 219 kts 213°
2026-05-07 20:22 40.76018 -74.11956 6773 ft 220 kts 214°
2026-05-07 20:22 40.74683 -74.12941 7255 ft 220 kts 214°
2026-05-07 20:23 40.73348 -74.13924 7726 ft 220 kts 214°
2026-05-07 20:23 40.72008 -74.14906 8172 ft 220 kts 215°
2026-05-07 20:23 40.70670 -74.15886 8617 ft 220 kts 215°
2026-05-07 20:23 40.69333 -74.16869 9043 ft 220 kts 216°
2026-05-07 20:24 40.67997 -74.17852 9472 ft 219 kts 216°
2026-05-07 20:24 40.66670 -74.18820 9924 ft 217 kts 216°
2026-05-07 20:24 40.65368 -74.19780 10494 ft 212 kts 216°
2026-05-07 20:24 40.64091 -74.20717 11025 ft 208 kts 216°
2026-05-07 20:25 40.62838 -74.21629 11547 ft 204 kts 216°
2026-05-07 20:25 40.61614 -74.22526 12057 ft 199 kts 217°
2026-05-07 20:25 40.60412 -74.23404 12534 ft 196 kts 217°
2026-05-07 20:25 40.59221 -74.24281 12917 ft 197 kts 217°
2026-05-07 20:26 40.58021 -74.25159 13291 ft 198 kts 217°
2026-05-07 20:26 40.56815 -74.26040 13641 ft 199 kts 218°
2026-05-07 20:26 40.55541 -74.26783 14022 ft 207 kts 206°
2026-05-07 20:26 40.54065 -74.27001 14368 ft 222 kts 192°
2026-05-07 20:27 40.52495 -74.26597 14702 ft 240 kts 175°
2026-05-07 20:27 40.50921 -74.25782 15001 ft 244 kts 174°
2026-05-07 20:27 40.49336 -74.24994 15288 ft 245 kts 175°
2026-05-07 20:27 40.47737 -74.24203 15584 ft 246 kts 174°
2026-05-07 20:28 40.46133 -74.23404 15877 ft 247 kts 175°
2026-05-07 20:28 40.44521 -74.22603 16134 ft 249 kts 175°
2026-05-07 20:28 40.42900 -74.21798 16411 ft 250 kts 175°
2026-05-07 20:28 40.41273 -74.20989 16671 ft 251 kts 176°
2026-05-07 20:29 40.39630 -74.20173 16920 ft 253 kts 176°
2026-05-07 20:29 40.37982 -74.19353 17184 ft 253 kts 176°
2026-05-07 20:29 40.36331 -74.18527 17415 ft 254 kts 176°
2026-05-07 20:29 40.34675 -74.17713 17658 ft 255 kts 177°
2026-05-07 20:30 40.33007 -74.16895 17879 ft 257 kts 177°
2026-05-07 20:30 40.31337 -74.16338 18085 ft 237 kts 193°
2026-05-07 20:30 40.29749 -74.16408 18325 ft 221 kts 205°
2026-05-07 20:30 40.28287 -74.16855 18581 ft 215 kts 209°
2026-05-07 20:31 40.26824 -74.17285 18841 ft 215 kts 208°
2026-05-07 20:31 40.25364 -74.17716 19086 ft 215 kts 208°
2026-05-07 20:31 40.23915 -74.18153 19340 ft 214 kts 209°
2026-05-07 20:31 40.22468 -74.18593 19572 ft 213 kts 209°
2026-05-07 20:32 40.21022 -74.19029 19813 ft 213 kts 208°
2026-05-07 20:32 40.19579 -74.19460 20050 ft 212 kts 209°
2026-05-07 20:32 40.18144 -74.19890 20304 ft 211 kts 209°
2026-05-07 20:32 40.16711 -74.20323 20494 ft 212 kts 209°
2026-05-07 20:33 40.15274 -74.20754 20741 ft 211 kts 209°
2026-05-07 20:33 40.13843 -74.21182 20981 ft 211 kts 209°
2026-05-07 20:33 40.12417 -74.21609 21217 ft 210 kts 209°
2026-05-07 20:33 40.10993 -74.22040 21463 ft 210 kts 209°
2026-05-07 20:34 40.09591 -74.22459 21698 ft 209 kts 209°
2026-05-07 20:34 40.08171 -74.22886 21920 ft 210 kts 209°
2026-05-07 20:34 40.06730 -74.23316 22161 ft 210 kts 209°
2026-05-07 20:34 40.05328 -74.23737 22411 ft 209 kts 209°
2026-05-07 20:35 40.03911 -74.24163 22680 ft 210 kts 209°
2026-05-07 20:35 40.02490 -74.24580 23091 ft 208 kts 209°
2026-05-07 20:35 40.01129 -74.25106 23439 ft 199 kts 216°
2026-05-07 20:35 39.99918 -74.25892 23821 ft 191 kts 222°
2026-05-07 20:36 39.98831 -74.26891 24165 ft 188 kts 226°
2026-05-07 20:36 39.97788 -74.27895 24485 ft 190 kts 225°
2026-05-07 20:36 39.96715 -74.28906 24814 ft 191 kts 225°
2026-05-07 20:36 39.95640 -74.29931 25145 ft 192 kts 225°
2026-05-07 20:37 39.94563 -74.30964 25472 ft 193 kts 225°
2026-05-07 20:37 39.93479 -74.31995 25791 ft 194 kts 225°
2026-05-07 20:37 39.92384 -74.33036 26118 ft 195 kts 225°
2026-05-07 20:37 39.91286 -74.34082 26474 ft 196 kts 225°
2026-05-07 20:38 39.90182 -74.35135 26798 ft 197 kts 225°
2026-05-07 20:38 39.89066 -74.36197 27069 ft 199 kts 225°
2026-05-07 20:38 39.87941 -74.37266 27335 ft 201 kts 225°
2026-05-07 20:38 39.86811 -74.38339 27629 ft 202 kts 225°
2026-05-07 20:39 39.85676 -74.39420 27930 ft 203 kts 225°
2026-05-07 20:39 39.84534 -74.40504 28206 ft 204 kts 225°
2026-05-07 20:39 39.83381 -74.41599 28505 ft 205 kts 225°
2026-05-07 20:39 39.82246 -74.42722 28798 ft 205 kts 227°
2026-05-07 20:40 39.81172 -74.43943 29072 ft 205 kts 229°
2026-05-07 20:40 39.80159 -74.45255 29182 ft 209 kts 231°
2026-05-07 20:40 39.79132 -74.46628 29368 ft 211 kts 231°
2026-05-07 20:40 39.78085 -74.48010 29416 ft 219 kts 231°
2026-05-07 20:41 39.77006 -74.49447 29425 ft 226 kts 231°
2026-05-07 20:41 39.75892 -74.50925 29441 ft 232 kts 231°
2026-05-07 20:41 39.74744 -74.52445 29451 ft 238 kts 231°
2026-05-07 20:41 39.73572 -74.53999 29462 ft 243 kts 230°
2026-05-07 20:42 39.72374 -74.55585 29474 ft 248 kts 230°
2026-05-07 20:42 39.71191 -74.57149 30123 ft 231 kts 231°
2026-05-07 20:42 39.70120 -74.58550 31003 ft 211 kts 231°
2026-05-07 20:42 39.69097 -74.59910 31198 ft 211 kts 232°
2026-05-07 20:43 39.68071 -74.61279 31373 ft 212 kts 232°
2026-05-07 20:43 39.67035 -74.62648 31544 ft 213 kts 232°
2026-05-07 20:43 39.66346 -74.63557 31654 ft 213 kts 232°
2026-05-07 20:43 39.64955 -74.65391 31909 ft 213 kts 232°
2026-05-07 20:44 39.64267 -74.66301 32015 ft 214 kts 232°
2026-05-07 20:44 39.63222 -74.67681 32157 ft 215 kts 232°
2026-05-07 20:44 39.62175 -74.69061 32325 ft 214 kts 232°
2026-05-07 20:44 39.60788 -74.70888 32530 ft 215 kts 232°
2026-05-07 20:45 39.59739 -74.72270 32667 ft 215 kts 232°
2026-05-07 20:45 39.59030 -74.73206 32777 ft 215 kts 232°
2026-05-07 20:45 39.57977 -74.74592 32899 ft 216 kts 232°
2026-05-07 20:45 39.56917 -74.75987 33011 ft 218 kts 233°
2026-05-07 20:46 39.55845 -74.77399 33014 ft 222 kts 233°
2026-05-07 20:46 39.54750 -74.78840 33017 ft 226 kts 233°
2026-05-07 20:46 39.53635 -74.80303 33022 ft 230 kts 233°
2026-05-07 20:46 39.52504 -74.81789 33028 ft 233 kts 232°
2026-05-07 20:47 39.51355 -74.83296 33029 ft 237 kts 232°
2026-05-07 20:47 39.50190 -74.84825 33025 ft 240 kts 232°
2026-05-07 20:47 39.49005 -74.86379 33026 ft 244 kts 232°
2026-05-07 20:47 39.47802 -74.87954 33028 ft 247 kts 232°
2026-05-07 20:48 39.46589 -74.89547 33031 ft 250 kts 232°
2026-05-07 20:48 39.45364 -74.91151 33030 ft 252 kts 232°
2026-05-07 20:48 39.44126 -74.92770 33039 ft 254 kts 232°
2026-05-07 20:48 39.42877 -74.94401 33033 ft 256 kts 232°
2026-05-07 20:49 39.41620 -74.96047 33039 ft 258 kts 232°
2026-05-07 20:49 39.40355 -74.97700 33035 ft 259 kts 232°
2026-05-07 20:49 39.39081 -74.99361 33035 ft 261 kts 232°
2026-05-07 20:49 39.37801 -75.01032 33036 ft 262 kts 232°
2026-05-07 20:50 39.36514 -75.02709 33035 ft 263 kts 232°
2026-05-07 20:50 39.35243 -75.04369 33039 ft 264 kts 232°
2026-05-07 20:50 39.33932 -75.06076 33031 ft 265 kts 232°
2026-05-07 20:50 39.32635 -75.07765 33038 ft 265 kts 232°
2026-05-07 20:51 39.31334 -75.09456 33036 ft 266 kts 232°
2026-05-07 20:51 39.30028 -75.11144 33033 ft 267 kts 231°
2026-05-07 20:51 39.28644 -75.12755 33037 ft 268 kts 229°
2026-05-07 20:51 39.27262 -75.14377 33034 ft 268 kts 230°
2026-05-07 20:52 39.25886 -75.16003 33034 ft 269 kts 230°
2026-05-07 20:52 39.24521 -75.17602 33036 ft 269 kts 230°
2026-05-07 20:52 39.23135 -75.19222 33039 ft 269 kts 230°
2026-05-07 20:52 39.21748 -75.20842 33036 ft 269 kts 230°
2026-05-07 20:53 39.20363 -75.22464 33037 ft 269 kts 230°
2026-05-07 20:53 39.18974 -75.24084 33038 ft 270 kts 230°
2026-05-07 20:53 39.17581 -75.25708 33039 ft 270 kts 230°
2026-05-07 20:53 39.16187 -75.27336 33039 ft 271 kts 230°
2026-05-07 20:54 39.14791 -75.28968 33038 ft 271 kts 230°
2026-05-07 20:54 39.13394 -75.30595 33036 ft 271 kts 230°
2026-05-07 20:54 39.11995 -75.32223 33036 ft 271 kts 230°
2026-05-07 20:54 39.10596 -75.33853 33025 ft 272 kts 230°
2026-05-07 20:55 39.09193 -75.35486 33025 ft 272 kts 230°
2026-05-07 20:55 39.07759 -75.37079 33027 ft 274 kts 227°
2026-05-07 20:55 39.06232 -75.38562 33025 ft 276 kts 225°
2026-05-07 20:55 39.04617 -75.39929 33025 ft 280 kts 222°
2026-05-07 20:56 39.02917 -75.41177 33024 ft 283 kts 219°
2026-05-07 20:56 39.01135 -75.42296 33026 ft 287 kts 217°
2026-05-07 20:56 38.99271 -75.43275 33025 ft 292 kts 214°
2026-05-07 20:56 38.97329 -75.44103 33024 ft 296 kts 211°
2026-05-07 20:57 38.95310 -75.44774 33023 ft 302 kts 208°
2026-05-07 20:57 38.91066 -75.45597 33033 ft 314 kts 202°
2026-05-07 20:58 38.86722 -75.46197 33034 ft 314 kts 202°
2026-05-07 20:58 38.82365 -75.46797 33042 ft 315 kts 202°
2026-05-07 20:59 38.78005 -75.47401 33040 ft 316 kts 202°
2026-05-07 20:59 38.73622 -75.47999 33051 ft 317 kts 202°
2026-05-07 21:00 38.69230 -75.48606 33052 ft 318 kts 202°
2026-05-07 21:00 38.64822 -75.49194 33052 ft 318 kts 202°
2026-05-07 21:01 38.60414 -75.49804 33052 ft 320 kts 202°
2026-05-07 21:01 38.55993 -75.50399 33052 ft 320 kts 202°
2026-05-07 21:02 38.51557 -75.51002 33052 ft 321 kts 202°
2026-05-07 21:02 38.47113 -75.51605 33052 ft 322 kts 202°
2026-05-07 21:03 38.42653 -75.52203 33054 ft 322 kts 202°
2026-05-07 21:03 38.38263 -75.52999 33054 ft 313 kts 207°
2026-05-07 21:04 38.34161 -75.54518 33053 ft 302 kts 213°
2026-05-07 21:04 38.32233 -75.55531 33053 ft 297 kts 217°
2026-05-07 21:04 38.30422 -75.56675 33053 ft 293 kts 220°
2026-05-07 21:04 38.28677 -75.57971 33053 ft 289 kts 223°
2026-05-07 21:05 38.27027 -75.59389 33054 ft 286 kts 225°
2026-05-07 21:05 38.25381 -75.60825 33054 ft 287 kts 224°
2026-05-07 21:05 38.23730 -75.62251 33054 ft 287 kts 224°
2026-05-07 21:05 38.22084 -75.63686 33054 ft 287 kts 224°
2026-05-07 21:06 38.20435 -75.65124 33055 ft 288 kts 224°
2026-05-07 21:06 38.18786 -75.66561 33055 ft 288 kts 224°
2026-05-07 21:06 38.17129 -75.68000 33055 ft 288 kts 224°
2026-05-07 21:06 38.15471 -75.69437 33056 ft 289 kts 225°
2026-05-07 21:07 38.13815 -75.70874 33056 ft 289 kts 225°
2026-05-07 21:07 38.12158 -75.72313 33056 ft 289 kts 225°
2026-05-07 21:07 38.10502 -75.73749 33056 ft 289 kts 225°
2026-05-07 21:07 38.08846 -75.75191 33056 ft 289 kts 225°
2026-05-07 21:08 38.07185 -75.76628 33056 ft 289 kts 224°
2026-05-07 21:08 38.05521 -75.78062 33056 ft 289 kts 224°
2026-05-07 21:08 38.03860 -75.79499 33056 ft 289 kts 225°
2026-05-07 21:08 38.02199 -75.80938 33056 ft 289 kts 224°
2026-05-07 21:09 38.00539 -75.82373 33057 ft 289 kts 224°
2026-05-07 21:09 37.98878 -75.83812 33057 ft 289 kts 225°
2026-05-07 21:09 37.97216 -75.85246 33057 ft 289 kts 224°
2026-05-07 21:09 37.95549 -75.86682 33056 ft 289 kts 224°
2026-05-07 21:10 37.93884 -75.88115 33057 ft 289 kts 225°
2026-05-07 21:10 37.92221 -75.89553 33057 ft 289 kts 225°
2026-05-07 21:10 37.90560 -75.90987 33057 ft 290 kts 224°
2026-05-07 21:10 37.88896 -75.92418 33059 ft 289 kts 224°
2026-05-07 21:11 37.87260 -75.93819 33062 ft 287 kts 225°
2026-05-07 21:11 37.85614 -75.95236 33065 ft 285 kts 225°
2026-05-07 21:11 37.82350 -75.98047 33065 ft 283 kts 225°
2026-05-07 21:12 37.80720 -75.99442 33064 ft 282 kts 225°
2026-05-07 21:12 37.79095 -76.00838 33063 ft 282 kts 225°
2026-05-07 21:12 37.77478 -76.02226 33063 ft 281 kts 225°
2026-05-07 21:12 37.75858 -76.03613 33062 ft 281 kts 225°
2026-05-07 21:13 37.74245 -76.04995 33061 ft 280 kts 225°
2026-05-07 21:13 37.72635 -76.06376 33060 ft 280 kts 225°
2026-05-07 21:13 37.71026 -76.07750 33060 ft 279 kts 225°
2026-05-07 21:13 37.69417 -76.09128 33059 ft 279 kts 225°
2026-05-07 21:14 37.67812 -76.10503 33059 ft 279 kts 225°
2026-05-07 21:14 37.66205 -76.11874 33058 ft 279 kts 225°
2026-05-07 21:14 37.64599 -76.13246 33058 ft 279 kts 225°
2026-05-07 21:14 37.62977 -76.14591 33058 ft 281 kts 223°
2026-05-07 21:15 37.61262 -76.15815 33057 ft 285 kts 221°
2026-05-07 21:15 37.59457 -76.16916 33057 ft 290 kts 218°
2026-05-07 21:15 37.57570 -76.17881 33057 ft 296 kts 215°
2026-05-07 21:15 37.55603 -76.18706 33057 ft 299 kts 213°
2026-05-07 21:16 37.53627 -76.19520 33057 ft 298 kts 213°
2026-05-07 21:16 37.51661 -76.20349 33057 ft 298 kts 214°
2026-05-07 21:16 37.49691 -76.21172 33068 ft 299 kts 213°
2026-05-07 21:16 37.47715 -76.21986 33067 ft 299 kts 213°
2026-05-07 21:17 37.45739 -76.22805 33067 ft 299 kts 213°
2026-05-07 21:17 37.43760 -76.23627 33067 ft 299 kts 213°
2026-05-07 21:17 37.41782 -76.24450 33067 ft 300 kts 213°
2026-05-07 21:17 37.39797 -76.25270 33067 ft 300 kts 213°
2026-05-07 21:18 37.37814 -76.26090 33068 ft 300 kts 213°
2026-05-07 21:18 37.35831 -76.26913 33067 ft 301 kts 213°
2026-05-07 21:18 37.31849 -76.28557 33067 ft 302 kts 213°
2026-05-07 21:19 37.27854 -76.30210 33068 ft 303 kts 213°
2026-05-07 21:19 37.23846 -76.31860 33068 ft 303 kts 213°
2026-05-07 21:20 37.19833 -76.33518 33068 ft 304 kts 213°
2026-05-07 21:20 37.15814 -76.35171 33069 ft 304 kts 213°
2026-05-07 21:21 37.11784 -76.36826 33068 ft 305 kts 213°
2026-05-07 21:21 37.07746 -76.38486 33068 ft 306 kts 213°
2026-05-07 21:22 37.03689 -76.40149 33069 ft 307 kts 213°
2026-05-07 21:22 36.99622 -76.41816 33069 ft 308 kts 213°
2026-05-07 21:23 36.95547 -76.43484 33070 ft 308 kts 213°
2026-05-07 21:23 36.91491 -76.45141 33070 ft 309 kts 213°
2026-05-07 21:24 36.87403 -76.46809 33071 ft 309 kts 213°
2026-05-07 21:24 36.83303 -76.48484 33069 ft 310 kts 213°
2026-05-07 21:25 36.79193 -76.50158 33070 ft 311 kts 213°
2026-05-07 21:25 36.75077 -76.51833 33070 ft 312 kts 212°
2026-05-07 21:26 36.70950 -76.53513 33071 ft 312 kts 212°
2026-05-07 21:26 36.66819 -76.55187 33077 ft 312 kts 212°
2026-05-07 21:27 36.62683 -76.56867 33077 ft 312 kts 212°
2026-05-07 21:27 36.58546 -76.58541 33077 ft 313 kts 212°
2026-05-07 21:28 36.54401 -76.60217 33078 ft 313 kts 212°
2026-05-07 21:28 36.50257 -76.61896 33078 ft 314 kts 212°
2026-05-07 21:29 36.46104 -76.63571 33078 ft 314 kts 212°